Time,TemperatureF,DewpointF,PressureIn,WindDirection,WindDirectionDegrees,WindSpeedMPH,WindSpeedGustMPH,Humidity,HourlyPrecipIn,Conditions,Clouds,dailyrainin,SoftwareType,DateUTC
2013-09-14 00:02:00,53.1,47.7,30.08,North,0,0.0,0.0,82,0.00,,,0.00,meteobridge,2013-09-14 05:02:00,
2013-09-14 00:07:00,52.5,47.1,30.08,North,0,0.0,0.0,82,0.00,,,0.00,meteobridge,2013-09-14 05:07:00,
2013-09-14 00:12:00,52.7,47.7,30.08,North,0,0.0,0.0,83,0.00,,,0.00,meteobridge,2013-09-14 05:12:00,
2013-09-14 00:17:00,52.7,47.7,30.08,North,0,0.0,0.0,83,0.00,,,0.00,meteobridge,2013-09-14 05:17:00,
2013-09-14 00:22:00,52.7,47.7,30.08,North,0,0.0,0.0,83,0.00,,,0.00,meteobridge,2013-09-14 05:22:00,
2013-09-14 00:27:00,52.0,46.9,30.08,North,0,0.0,0.0,83,0.00,,,0.00,meteobridge,2013-09-14 05:27:00,
2013-09-14 00:33:00,51.6,46.9,30.08,North,0,0.0,0.0,84,0.00,,,0.00,meteobridge,2013-09-14 05:33:00,
2013-09-14 00:38:00,51.4,47.1,30.08,North,0,0.0,0.0,85,0.00,,,0.00,meteobridge,2013-09-14 05:38:00,
2013-09-14 00:43:00,51.3,46.9,30.08,North,0,0.0,0.0,85,0.00,,,0.00,meteobridge,2013-09-14 05:43:00,
2013-09-14 00:48:00,50.7,46.8,30.08,North,0,0.0,0.0,86,0.00,,,0.00,meteobridge,2013-09-14 05:48:00,
2013-09-14 00:53:00,50.7,46.9,30.08,North,0,0.0,0.0,87,0.00,,,0.00,meteobridge,2013-09-14 05:53:00,
2013-09-14 00:58:00,50.7,46.9,30.08,North,0,0.0,0.0,87,0.00,,,0.00,meteobridge,2013-09-14 05:58:00,
2013-09-14 01:04:00,50.7,46.9,30.08,North,0,0.0,0.0,87,0.00,,,0.00,meteobridge,2013-09-14 06:04:00,
2013-09-14 01:09:00,50.7,46.9,30.08,West,270,0.0,0.0,87,0.00,,,0.00,meteobridge,2013-09-14 06:09:00,
2013-09-14 01:14:00,50.5,46.8,30.08,West,270,0.0,0.0,87,0.00,,,0.00,meteobridge,2013-09-14 06:14:00,
2013-09-14 01:19:00,50.4,46.9,30.07,West,270,0.0,0.0,88,0.00,,,0.00,meteobridge,2013-09-14 06:19:00,
2013-09-14 01:25:00,50.5,47.1,30.08,West,270,0.0,0.0,88,0.00,,,0.00,meteobridge,2013-09-14 06:25:00,
2013-09-14 01:30:00,50.2,46.8,30.08,West,270,0.0,0.0,88,0.00,,,0.00,meteobridge,2013-09-14 06:30:00,
2013-09-14 01:35:00,50.2,46.8,30.07,West,270,0.0,0.0,88,0.00,,,0.00,meteobridge,2013-09-14 06:35:00,
2013-09-14 01:40:00,50.0,46.6,30.07,West,270,0.0,0.0,88,0.00,,,0.00,meteobridge,2013-09-14 06:40:00,
2013-09-14 01:45:00,49.8,46.8,30.08,West,270,0.0,0.0,89,0.00,,,0.00,meteobridge,2013-09-14 06:45:00,
2013-09-14 01:50:00,49.8,46.9,30.07,West,270,0.0,0.0,90,0.00,,,0.00,meteobridge,2013-09-14 06:50:00,
2013-09-14 01:56:00,49.6,46.8,30.07,West,270,0.0,0.0,90,0.00,,,0.00,meteobridge,2013-09-14 06:56:00,
2013-09-14 02:01:00,49.1,46.2,30.07,West,270,0.0,0.0,90,0.00,,,0.00,meteobridge,2013-09-14 07:01:00,
2013-09-14 02:06:00,48.6,45.5,30.07,NW,315,0.0,0.0,89,0.00,,,0.00,meteobridge,2013-09-14 07:06:00,
2013-09-14 02:11:00,48.6,45.7,30.08,North,0,0.0,0.0,90,0.00,,,0.00,meteobridge,2013-09-14 07:11:00,
2013-09-14 02:16:00,48.7,45.9,30.08,West,270,0.0,0.0,90,0.00,,,0.00,meteobridge,2013-09-14 07:16:00,
2013-09-14 02:21:00,48.4,45.9,30.08,West,270,0.0,0.0,91,0.00,,,0.00,meteobridge,2013-09-14 07:21:00,
2013-09-14 02:27:00,48.4,46.2,30.08,West,270,0.0,0.0,92,0.00,,,0.00,meteobridge,2013-09-14 07:27:00,
2013-09-14 02:32:00,48.2,46.0,30.08,West,270,0.0,0.0,92,0.00,,,0.00,meteobridge,2013-09-14 07:32:00,
2013-09-14 02:37:00,48.4,46.4,30.08,West,270,0.0,0.0,93,0.00,,,0.00,meteobridge,2013-09-14 07:37:00,
2013-09-14 02:42:00,48.6,46.6,30.08,West,270,0.0,0.0,93,0.00,,,0.00,meteobridge,2013-09-14 07:42:00,
2013-09-14 02:47:00,48.4,46.4,30.08,West,270,0.0,0.0,93,0.00,,,0.00,meteobridge,2013-09-14 07:47:00,
2013-09-14 02:52:00,48.2,46.2,30.07,West,270,0.0,0.0,93,0.00,,,0.00,meteobridge,2013-09-14 07:52:00,
2013-09-14 02:58:00,48.2,46.6,30.07,West,270,0.0,0.0,94,0.00,,,0.00,meteobridge,2013-09-14 07:58:00,
2013-09-14 03:03:00,48.4,46.8,30.07,West,270,0.0,0.0,94,0.00,,,0.00,meteobridge,2013-09-14 08:03:00,
2013-09-14 03:08:00,49.3,47.7,30.07,East,90,0.0,0.0,94,0.00,,,0.00,meteobridge,2013-09-14 08:08:00,
2013-09-14 03:13:00,49.5,47.5,30.07,East,90,0.0,0.0,93,0.00,,,0.00,meteobridge,2013-09-14 08:13:00,
2013-09-14 03:18:00,49.6,47.5,30.07,SW,225,0.0,0.0,92,0.00,,,0.00,meteobridge,2013-09-14 08:18:00,
2013-09-14 03:23:00,49.6,47.1,30.08,North,0,1.6,1.6,91,0.00,,,0.00,meteobridge,2013-09-14 08:23:00,
2013-09-14 03:29:00,48.6,45.5,30.08,North,0,0.0,0.0,89,0.00,,,0.00,meteobridge,2013-09-14 08:29:00,
2013-09-14 03:34:00,48.0,45.5,30.08,North,0,0.0,0.0,91,0.00,,,0.00,meteobridge,2013-09-14 08:34:00,
2013-09-14 03:39:00,47.8,45.3,30.08,North,0,0.0,0.0,91,0.00,,,0.00,meteobridge,2013-09-14 08:39:00,
2013-09-14 03:44:00,47.7,45.5,30.08,North,0,0.0,0.0,92,0.00,,,0.00,meteobridge,2013-09-14 08:44:00,
2013-09-14 03:49:00,47.7,45.5,30.08,North,0,0.0,0.0,92,0.00,,,0.00,meteobridge,2013-09-14 08:49:00,
2013-09-14 03:54:00,47.5,45.5,30.08,North,0,0.0,0.0,93,0.00,,,0.00,meteobridge,2013-09-14 08:54:00,
2013-09-14 04:00:00,47.5,45.5,30.08,North,0,0.0,0.0,93,0.00,,,0.00,meteobridge,2013-09-14 09:00:00,
2013-09-14 04:05:00,47.7,46.0,30.08,North,0,0.0,0.0,94,0.00,,,0.00,meteobridge,2013-09-14 09:05:00,
2013-09-14 04:10:00,47.5,45.9,30.08,North,0,0.0,0.0,94,0.00,,,0.00,meteobridge,2013-09-14 09:10:00,
2013-09-14 04:15:00,47.3,45.9,30.08,North,0,0.0,0.0,95,0.00,,,0.00,meteobridge,2013-09-14 09:15:00,
2013-09-14 04:20:00,47.5,46.0,30.08,North,0,0.0,0.0,95,0.00,,,0.00,meteobridge,2013-09-14 09:20:00,
2013-09-14 04:25:00,47.8,46.4,30.08,North,0,0.0,0.0,95,0.00,,,0.00,meteobridge,2013-09-14 09:25:00,
2013-09-14 04:31:00,48.6,46.9,30.08,North,0,0.0,0.0,94,0.00,,,0.00,meteobridge,2013-09-14 09:31:00,
2013-09-14 04:36:00,48.7,46.6,30.08,North,0,0.0,0.0,92,0.00,,,0.00,meteobridge,2013-09-14 09:36:00,
2013-09-14 04:41:00,48.9,46.0,30.08,North,0,0.0,0.0,90,0.00,,,0.00,meteobridge,2013-09-14 09:41:00,
2013-09-14 04:46:00,48.4,45.5,30.08,North,0,0.0,0.0,90,0.00,,,0.00,meteobridge,2013-09-14 09:46:00,
2013-09-14 04:51:00,48.0,45.1,30.08,North,0,0.0,0.0,90,0.00,,,0.00,meteobridge,2013-09-14 09:51:00,
2013-09-14 04:56:00,48.4,45.3,30.08,North,0,0.0,0.0,89,0.00,,,0.00,meteobridge,2013-09-14 09:56:00,
2013-09-14 05:02:00,48.6,45.5,30.07,SW,225,0.0,0.0,89,0.00,,,0.00,meteobridge,2013-09-14 10:02:00,
2013-09-14 05:07:00,48.6,45.5,30.08,SW,225,0.0,0.0,89,0.00,,,0.00,meteobridge,2013-09-14 10:07:00,
2013-09-14 05:12:00,47.5,44.4,30.08,West,270,0.0,0.0,89,0.00,,,0.00,meteobridge,2013-09-14 10:12:00,
2013-09-14 05:17:00,47.1,44.4,30.08,West,270,0.0,0.0,90,0.00,,,0.00,meteobridge,2013-09-14 10:17:00,
2013-09-14 05:22:00,47.1,44.4,30.08,West,270,0.0,0.0,90,0.00,,,0.00,meteobridge,2013-09-14 10:22:00,
2013-09-14 05:27:00,48.2,45.3,30.08,West,270,0.0,0.0,90,0.00,,,0.00,meteobridge,2013-09-14 10:27:00,
2013-09-14 05:33:00,47.8,45.3,30.08,West,270,0.0,0.0,91,0.00,,,0.00,meteobridge,2013-09-14 10:33:00,
2013-09-14 05:38:00,47.3,44.6,30.08,West,270,0.0,0.0,90,0.00,,,0.00,meteobridge,2013-09-14 10:38:00,
2013-09-14 05:43:00,47.5,45.0,30.08,West,270,0.0,0.0,91,0.00,,,0.00,meteobridge,2013-09-14 10:43:00,
2013-09-14 05:48:00,48.0,45.5,30.08,East,90,0.0,0.0,91,0.00,,,0.00,meteobridge,2013-09-14 10:48:00,
2013-09-14 05:53:00,50.2,46.8,30.08,South,180,0.7,1.6,88,0.00,,,0.00,meteobridge,2013-09-14 10:53:00,
2013-09-14 05:58:00,50.9,46.2,30.08,South,180,0.0,0.7,84,0.00,,,0.00,meteobridge,2013-09-14 10:58:00,
2013-09-14 06:04:00,49.1,44.2,30.08,NW,315,1.6,1.6,83,0.00,,,0.00,meteobridge,2013-09-14 11:04:00,
2013-09-14 06:09:00,46.6,42.6,30.08,North,0,0.0,1.6,86,0.00,,,0.00,meteobridge,2013-09-14 11:09:00,
2013-09-14 06:14:00,46.4,43.0,30.08,North,0,0.0,0.0,88,0.00,,,0.00,meteobridge,2013-09-14 11:14:00,
2013-09-14 06:19:00,46.6,43.5,30.08,North,0,0.0,0.0,89,0.00,,,0.00,meteobridge,2013-09-14 11:19:00,
2013-09-14 06:24:00,46.4,43.7,30.08,North,0,0.0,0.0,90,0.00,,,0.00,meteobridge,2013-09-14 11:24:00,
2013-09-14 06:29:00,47.1,44.6,30.07,SE,135,0.0,0.0,91,0.00,,,0.00,meteobridge,2013-09-14 11:29:00,
2013-09-14 06:35:00,47.7,45.0,30.08,South,180,0.0,0.0,90,0.00,,,0.00,meteobridge,2013-09-14 11:35:00,
2013-09-14 06:40:00,48.6,45.5,30.07,South,180,0.0,0.0,89,0.00,,,0.00,meteobridge,2013-09-14 11:40:00,
2013-09-14 06:45:00,49.5,45.7,30.08,South,180,0.0,1.6,87,0.00,,,0.00,meteobridge,2013-09-14 11:45:00,
2013-09-14 06:50:00,50.4,45.7,30.07,SE,135,0.0,1.6,84,0.00,,,0.00,meteobridge,2013-09-14 11:50:00,
2013-09-14 06:55:00,51.3,45.7,30.08,South,180,0.0,3.1,81,0.00,,,0.00,meteobridge,2013-09-14 11:55:00,
2013-09-14 07:01:00,45.0,39.7,30.08,NW,315,1.6,2.2,82,0.00,,,0.00,meteobridge,2013-09-14 12:01:00,
2013-09-14 07:06:00,45.0,39.7,30.08,NW,315,1.6,1.6,82,0.00,,,0.00,meteobridge,2013-09-14 12:06:00,
2013-09-14 07:11:00,46.6,44.1,30.08,South,180,0.0,0.0,91,0.00,,,0.00,meteobridge,2013-09-14 12:11:00,
2013-09-14 07:16:00,49.1,46.2,30.08,South,180,0.0,0.0,90,0.00,,,0.00,meteobridge,2013-09-14 12:16:00,
2013-09-14 07:21:00,48.9,45.0,30.08,North,0,0.0,0.0,86,0.00,,,0.00,meteobridge,2013-09-14 12:21:00,
2013-09-14 07:26:00,48.6,44.2,30.08,North,0,0.0,0.0,85,0.00,,,0.00,meteobridge,2013-09-14 12:26:00,
2013-09-14 07:32:00,48.7,44.4,30.09,North,0,0.0,0.0,85,0.00,,,0.00,meteobridge,2013-09-14 12:32:00,
2013-09-14 07:37:00,48.4,44.1,30.09,North,0,0.7,1.6,85,0.00,,,0.00,meteobridge,2013-09-14 12:37:00,
2013-09-14 07:42:00,49.5,45.5,30.09,North,0,0.0,0.0,86,0.00,,,0.00,meteobridge,2013-09-14 12:42:00,
2013-09-14 07:47:00,52.7,48.0,30.09,South,180,0.0,0.0,84,0.00,,,0.00,meteobridge,2013-09-14 12:47:00,
2013-09-14 07:52:00,52.9,45.9,30.09,South,180,3.1,3.1,77,0.00,,,0.00,meteobridge,2013-09-14 12:52:00,
2013-09-14 07:57:00,53.6,45.5,30.09,South,180,2.2,2.2,74,0.00,,,0.00,meteobridge,2013-09-14 12:57:00,
2013-09-14 08:03:00,51.8,44.1,30.09,NW,315,0.0,0.7,75,0.00,,,0.00,meteobridge,2013-09-14 13:03:00,
2013-09-14 08:08:00,51.4,46.4,30.09,South,180,0.0,0.0,83,0.00,,,0.00,meteobridge,2013-09-14 13:08:00,
2013-09-14 08:13:00,51.3,46.6,30.09,South,180,0.0,0.0,84,0.00,,,0.00,meteobridge,2013-09-14 13:13:00,
2013-09-14 08:18:00,53.8,46.8,30.09,SE,135,5.4,5.4,77,0.00,,,0.00,meteobridge,2013-09-14 13:18:00,
2013-09-14 08:23:00,54.3,45.9,30.09,South,180,6.9,6.9,73,0.00,,,0.00,meteobridge,2013-09-14 13:23:00,
2013-09-14 08:28:00,55.0,46.6,30.09,SE,135,4.5,4.5,73,0.00,,,0.00,meteobridge,2013-09-14 13:28:00,
2013-09-14 08:34:00,55.6,46.4,30.09,SE,135,6.9,6.9,71,0.00,,,0.00,meteobridge,2013-09-14 13:34:00,
2013-09-14 08:39:00,56.7,47.3,30.09,SE,135,7.6,7.6,71,0.00,,,0.00,meteobridge,2013-09-14 13:39:00,
2013-09-14 08:44:00,57.4,47.3,30.09,East,90,6.9,7.6,69,0.00,,,0.00,meteobridge,2013-09-14 13:44:00,
2013-09-14 08:49:00,58.5,48.4,30.09,SE,135,8.3,8.3,69,0.00,,,0.00,meteobridge,2013-09-14 13:49:00,
2013-09-14 08:54:00,59.9,49.6,30.08,SE,135,9.2,9.2,69,0.00,,,0.00,meteobridge,2013-09-14 13:54:00,
2013-09-14 08:59:00,60.3,49.3,30.09,SE,135,5.4,8.3,67,0.00,,,0.00,meteobridge,2013-09-14 13:59:00,
2013-09-14 09:05:00,60.3,49.3,30.09,SE,135,5.4,5.4,67,0.00,,,0.00,meteobridge,2013-09-14 14:05:00,
2013-09-14 09:10:00,61.5,48.7,30.08,SE,135,6.9,8.3,63,0.00,,,0.00,meteobridge,2013-09-14 14:10:00,
2013-09-14 09:15:00,61.9,48.7,30.08,South,180,6.9,9.8,62,0.00,,,0.00,meteobridge,2013-09-14 14:15:00,
2013-09-14 09:20:00,62.6,48.6,30.08,SE,135,8.3,8.3,60,0.00,,,0.00,meteobridge,2013-09-14 14:20:00,
2013-09-14 09:25:00,63.1,49.1,30.08,SW,225,9.2,9.2,60,0.00,,,0.00,meteobridge,2013-09-14 14:25:00,
2013-09-14 09:30:00,63.0,48.0,30.08,South,180,9.2,14.5,58,0.00,,,0.00,meteobridge,2013-09-14 14:30:00,
2013-09-14 09:36:00,63.5,48.0,30.08,SE,135,9.2,9.2,57,0.00,,,0.00,meteobridge,2013-09-14 14:36:00,
2013-09-14 09:41:00,63.5,47.5,30.08,SE,135,13.0,13.0,56,0.00,,,0.00,meteobridge,2013-09-14 14:41:00,
2013-09-14 09:46:00,63.9,47.3,30.08,East,90,13.6,13.6,55,0.00,,,0.00,meteobridge,2013-09-14 14:46:00,
2013-09-14 09:51:00,64.2,47.7,30.08,South,180,10.7,12.1,55,0.00,,,0.00,meteobridge,2013-09-14 14:51:00,
2013-09-14 09:56:00,64.4,47.8,30.08,SE,135,15.2,15.2,55,0.00,,,0.00,meteobridge,2013-09-14 14:56:00,
2013-09-14 10:01:00,64.4,47.8,30.08,South,180,6.0,9.8,55,0.00,,,0.00,meteobridge,2013-09-14 15:01:00,
2013-09-14 10:07:00,64.2,47.3,30.07,South,180,12.1,13.6,54,0.00,,,0.00,meteobridge,2013-09-14 15:07:00,
2013-09-14 10:12:00,64.6,48.0,30.08,South,180,10.7,14.5,55,0.00,,,0.00,meteobridge,2013-09-14 15:12:00,
2013-09-14 10:17:00,64.6,47.5,30.07,SE,135,9.2,10.7,54,0.00,,,0.00,meteobridge,2013-09-14 15:17:00,
2013-09-14 10:22:00,64.9,47.5,30.07,East,90,11.4,17.4,53,0.00,,,0.00,meteobridge,2013-09-14 15:22:00,
2013-09-14 10:27:00,64.9,47.8,30.07,East,90,8.3,15.2,54,0.00,,,0.00,meteobridge,2013-09-14 15:27:00,
2013-09-14 10:32:00,65.7,49.1,30.07,SE,135,7.6,9.8,55,0.00,,,0.00,meteobridge,2013-09-14 15:32:00,
2013-09-14 10:38:00,65.8,49.3,30.07,South,180,11.4,11.4,55,0.00,,,0.00,meteobridge,2013-09-14 15:38:00,
2013-09-14 10:43:00,66.6,49.5,30.07,SE,135,6.0,7.6,54,0.00,,,0.00,meteobridge,2013-09-14 15:43:00,
2013-09-14 10:48:00,66.7,48.6,30.07,SE,135,9.2,13.6,52,0.00,,,0.00,meteobridge,2013-09-14 15:48:00,
2013-09-14 10:53:00,67.1,48.4,30.07,NE,45,8.3,10.7,51,0.00,,,0.00,meteobridge,2013-09-14 15:53:00,
2013-09-14 10:58:00,68.2,49.3,30.07,SE,135,12.1,12.1,51,0.00,,,0.00,meteobridge,2013-09-14 15:58:00,
2013-09-14 11:03:00,67.8,49.1,30.06,SE,135,8.3,8.3,51,0.00,,,0.00,meteobridge,2013-09-14 16:03:00,
2013-09-14 11:09:00,68.4,47.8,30.06,East,90,14.5,14.5,48,0.00,,,0.00,meteobridge,2013-09-14 16:09:00,
2013-09-14 11:14:00,70.7,49.5,30.06,South,180,9.2,9.2,47,0.00,,,0.00,meteobridge,2013-09-14 16:14:00,
2013-09-14 11:19:00,69.6,48.6,30.06,SE,135,18.3,18.3,47,0.00,,,0.00,meteobridge,2013-09-14 16:19:00,
2013-09-14 11:24:00,70.3,48.0,30.06,SE,135,13.6,16.8,45,0.00,,,0.00,meteobridge,2013-09-14 16:24:00,
2013-09-14 11:29:00,70.9,48.6,30.05,SE,135,18.3,18.3,45,0.00,,,0.00,meteobridge,2013-09-14 16:29:00,
2013-09-14 11:34:00,70.2,47.3,30.06,SE,135,5.4,13.0,44,0.00,,,0.00,meteobridge,2013-09-14 16:34:00,
2013-09-14 11:40:00,69.4,47.1,30.06,SE,135,15.2,15.2,45,0.00,,,0.00,meteobridge,2013-09-14 16:40:00,
2013-09-14 11:45:00,69.8,47.5,30.05,SE,135,13.0,13.0,45,0.00,,,0.00,meteobridge,2013-09-14 16:45:00,
2013-09-14 11:50:00,70.9,48.6,30.05,South,180,7.6,8.3,45,0.00,,,0.00,meteobridge,2013-09-14 16:50:00,
2013-09-14 11:55:00,71.1,48.6,30.05,SE,135,12.1,12.1,45,0.00,,,0.00,meteobridge,2013-09-14 16:55:00,
2013-09-14 12:00:00,73.8,49.8,30.05,SE,135,9.8,9.8,43,0.00,,,0.00,meteobridge,2013-09-14 17:00:00,
2013-09-14 12:05:00,73.6,49.1,30.05,SE,135,16.8,16.8,42,0.00,,,0.00,meteobridge,2013-09-14 17:05:00,
2013-09-14 12:11:00,72.1,47.8,30.05,SE,135,13.0,13.0,42,0.00,,,0.00,meteobridge,2013-09-14 17:11:00,
2013-09-14 12:16:00,72.1,47.1,30.04,SE,135,13.6,15.2,41,0.00,,,0.00,meteobridge,2013-09-14 17:16:00,
2013-09-14 12:21:00,73.4,48.9,30.04,South,180,11.4,14.5,42,0.00,,,0.00,meteobridge,2013-09-14 17:21:00,
2013-09-14 12:26:00,72.9,47.8,30.04,SE,135,9.8,9.8,41,0.00,,,0.00,meteobridge,2013-09-14 17:26:00,
2013-09-14 12:31:00,71.4,47.1,30.04,SW,225,14.5,16.8,42,0.00,,,0.00,meteobridge,2013-09-14 17:31:00,
2013-09-14 12:37:00,72.5,48.0,30.03,SE,135,9.2,9.8,42,0.00,,,0.00,meteobridge,2013-09-14 17:37:00,
2013-09-14 12:42:00,75.0,51.1,30.03,South,180,11.4,11.4,43,0.00,,,0.00,meteobridge,2013-09-14 17:42:00,
2013-09-14 12:47:00,74.1,50.9,30.03,East,90,9.8,12.1,44,0.00,,,0.00,meteobridge,2013-09-14 17:47:00,
2013-09-14 12:52:00,74.7,50.0,30.03,South,180,11.4,11.4,42,0.00,,,0.00,meteobridge,2013-09-14 17:52:00,
2013-09-14 12:57:00,74.7,48.7,30.03,East,90,4.5,9.8,40,0.00,,,0.00,meteobridge,2013-09-14 17:57:00,
2013-09-14 13:02:00,74.7,49.5,30.03,East,90,16.8,16.8,41,0.00,,,0.00,meteobridge,2013-09-14 18:02:00,
2013-09-14 13:08:00,75.4,50.7,30.02,South,180,8.3,16.8,42,0.00,,,0.00,meteobridge,2013-09-14 18:08:00,
2013-09-14 13:13:00,72.7,47.7,30.02,SE,135,13.0,14.5,41,0.00,,,0.00,meteobridge,2013-09-14 18:13:00,
2013-09-14 13:18:00,73.0,48.6,30.02,SE,135,12.1,12.1,42,0.00,,,0.00,meteobridge,2013-09-14 18:18:00,
2013-09-14 13:23:00,73.2,49.5,30.01,South,180,7.6,10.7,43,0.00,,,0.00,meteobridge,2013-09-14 18:23:00,
2013-09-14 13:28:00,73.0,48.6,30.01,SE,135,10.7,15.9,42,0.00,,,0.00,meteobridge,2013-09-14 18:28:00,
2013-09-14 13:33:00,73.6,50.4,30.01,SE,135,7.6,9.8,44,0.00,,,0.00,meteobridge,2013-09-14 18:33:00,
2013-09-14 13:39:00,73.4,50.7,30.01,SE,135,7.6,9.8,45,0.00,,,0.00,meteobridge,2013-09-14 18:39:00,
2013-09-14 13:44:00,72.3,48.6,30.01,South,180,9.8,11.4,43,0.00,,,0.00,meteobridge,2013-09-14 18:44:00,
2013-09-14 13:49:00,73.6,50.9,30.01,SW,225,12.1,12.1,45,0.00,,,0.00,meteobridge,2013-09-14 18:49:00,
2013-09-14 13:54:00,73.0,48.6,30.00,SE,135,13.0,13.6,42,0.00,,,0.00,meteobridge,2013-09-14 18:54:00,
2013-09-14 13:59:00,74.5,50.5,30.00,South,180,12.1,12.1,43,0.00,,,0.00,meteobridge,2013-09-14 18:59:00,
2013-09-14 14:04:00,75.0,49.6,29.99,SE,135,12.1,12.1,41,0.00,,,0.00,meteobridge,2013-09-14 19:04:00,
2013-09-14 14:10:00,74.8,48.9,29.99,SW,225,14.5,14.5,40,0.00,,,0.00,meteobridge,2013-09-14 19:10:00,
2013-09-14 14:15:00,75.7,49.1,29.99,East,90,7.6,12.1,39,0.00,,,0.00,meteobridge,2013-09-14 19:15:00,
2013-09-14 14:20:00,77.2,50.4,29.99,SE,135,13.6,14.5,39,0.00,,,0.00,meteobridge,2013-09-14 19:20:00,
2013-09-14 14:25:00,76.5,49.6,29.99,South,180,6.0,10.7,39,0.00,,,0.00,meteobridge,2013-09-14 19:25:00,
2013-09-14 14:30:00,77.2,48.9,29.98,South,180,6.0,9.8,37,0.00,,,0.00,meteobridge,2013-09-14 19:30:00,
2013-09-14 14:35:00,75.4,48.0,29.98,South,180,15.2,15.2,38,0.00,,,0.00,meteobridge,2013-09-14 19:35:00,
2013-09-14 14:41:00,76.5,48.9,29.98,South,180,13.0,13.0,38,0.00,,,0.00,meteobridge,2013-09-14 19:41:00,
2013-09-14 14:46:00,75.9,48.6,29.98,SE,135,10.7,10.7,38,0.00,,,0.00,meteobridge,2013-09-14 19:46:00,
2013-09-14 14:51:00,75.2,47.1,29.98,South,180,12.1,19.0,37,0.00,,,0.00,meteobridge,2013-09-14 19:51:00,
2013-09-14 14:56:00,76.3,48.7,29.97,West,270,9.8,11.4,38,0.00,,,0.00,meteobridge,2013-09-14 19:56:00,
2013-09-14 15:01:00,77.5,49.3,29.97,South,180,9.8,9.8,37,0.00,,,0.00,meteobridge,2013-09-14 20:01:00,
2013-09-14 15:06:00,77.5,49.3,29.97,South,180,9.8,9.8,37,0.00,,,0.00,meteobridge,2013-09-14 20:06:00,
2013-09-14 15:12:00,75.0,50.4,29.97,SW,225,7.6,16.8,42,0.00,,,0.00,meteobridge,2013-09-14 20:12:00,
2013-09-14 15:17:00,74.7,50.7,29.97,SE,135,6.0,10.7,43,0.00,,,0.00,meteobridge,2013-09-14 20:17:00,
2013-09-14 15:22:00,74.7,51.3,29.96,SE,135,10.7,11.4,44,0.00,,,0.00,meteobridge,2013-09-14 20:22:00,
2013-09-14 15:27:00,75.6,50.9,29.96,SE,135,7.6,8.3,42,0.00,,,0.00,meteobridge,2013-09-14 20:27:00,
2013-09-14 15:32:00,75.2,49.8,29.96,SE,135,13.6,13.6,41,0.00,,,0.00,meteobridge,2013-09-14 20:32:00,
2013-09-14 15:37:00,75.0,49.1,29.96,SE,135,7.6,12.1,40,0.00,,,0.00,meteobridge,2013-09-14 20:37:00,
2013-09-14 15:43:00,75.2,50.5,29.96,SE,135,10.7,13.0,42,0.00,,,0.00,meteobridge,2013-09-14 20:43:00,
2013-09-14 15:48:00,75.7,51.1,29.95,SE,135,7.6,8.3,42,0.00,,,0.00,meteobridge,2013-09-14 20:48:00,
2013-09-14 15:53:00,75.0,50.4,29.95,East,90,12.1,12.1,42,0.00,,,0.00,meteobridge,2013-09-14 20:53:00,
2013-09-14 15:58:00,75.7,51.6,29.95,SE,135,11.4,11.4,43,0.00,,,0.00,meteobridge,2013-09-14 20:58:00,
2013-09-14 16:03:00,75.7,50.4,29.95,South,180,14.5,14.5,41,0.00,,,0.00,meteobridge,2013-09-14 21:03:00,
2013-09-14 16:08:00,75.2,50.5,29.95,South,180,10.7,12.1,42,0.00,,,0.00,meteobridge,2013-09-14 21:08:00,
2013-09-14 16:14:00,76.3,52.2,29.94,South,180,12.1,18.3,43,0.00,,,0.00,meteobridge,2013-09-14 21:14:00,
2013-09-14 16:19:00,76.3,52.7,29.94,South,180,8.3,13.0,44,0.00,,,0.00,meteobridge,2013-09-14 21:19:00,
2013-09-14 16:24:00,74.8,52.2,29.94,SE,135,18.3,18.3,45,0.00,,,0.00,meteobridge,2013-09-14 21:24:00,
2013-09-14 16:29:00,76.1,52.5,29.94,SE,135,8.3,9.2,44,0.00,,,0.00,meteobridge,2013-09-14 21:29:00,
2013-09-14 16:34:00,76.1,52.5,29.94,SW,225,16.8,16.8,44,0.00,,,0.00,meteobridge,2013-09-14 21:34:00,
2013-09-14 16:39:00,77.2,51.1,29.94,SE,135,9.2,12.1,40,0.00,,,0.00,meteobridge,2013-09-14 21:39:00,
2013-09-14 16:45:00,76.3,52.2,29.94,SE,135,12.1,13.6,43,0.00,,,0.00,meteobridge,2013-09-14 21:45:00,
2013-09-14 16:50:00,76.5,52.9,29.93,South,180,4.5,10.7,44,0.00,,,0.00,meteobridge,2013-09-14 21:50:00,
2013-09-14 16:55:00,76.8,53.2,29.93,South,180,11.4,13.0,44,0.00,,,0.00,meteobridge,2013-09-14 21:55:00,
2013-09-14 17:00:00,76.5,52.9,29.93,SE,135,10.7,15.2,44,0.00,,,0.00,meteobridge,2013-09-14 22:00:00,
2013-09-14 17:05:00,76.5,52.9,29.93,SE,135,10.7,10.7,44,0.00,,,0.00,meteobridge,2013-09-14 22:05:00,
2013-09-14 17:10:00,75.0,52.2,29.93,SE,135,12.1,12.1,45,0.00,,,0.00,meteobridge,2013-09-14 22:10:00,
2013-09-14 17:16:00,75.6,52.2,29.93,South,180,11.4,13.6,44,0.00,,,0.00,meteobridge,2013-09-14 22:16:00,
2013-09-14 17:21:00,75.2,51.8,29.93,SW,225,6.0,15.9,44,0.00,,,0.00,meteobridge,2013-09-14 22:21:00,
2013-09-14 17:26:00,74.7,52.0,29.93,SE,135,9.8,13.0,45,0.00,,,0.00,meteobridge,2013-09-14 22:26:00,
2013-09-14 17:31:00,74.3,52.2,29.93,SE,135,9.8,9.8,46,0.00,,,0.00,meteobridge,2013-09-14 22:31:00,
2013-09-14 17:36:00,74.8,52.7,29.93,SE,135,9.2,10.7,46,0.00,,,0.00,meteobridge,2013-09-14 22:36:00,
2013-09-14 17:41:00,74.8,52.7,29.93,SE,135,12.1,12.1,46,0.00,,,0.00,meteobridge,2013-09-14 22:41:00,
2013-09-14 17:47:00,74.7,53.1,29.93,South,180,7.6,9.2,47,0.00,,,0.00,meteobridge,2013-09-14 22:47:00,
2013-09-14 17:51:00,74.3,52.7,29.93,SE,135,8.3,9.8,47,0.00,,,0.00,meteobridge,2013-09-14 22:51:00,
2013-09-14 17:57:00,74.1,52.5,29.93,SE,135,9.2,13.0,47,0.00,,,0.00,meteobridge,2013-09-14 22:57:00,
2013-09-14 18:01:00,74.1,52.0,29.93,North,0,9.8,10.7,46,0.00,,,0.00,meteobridge,2013-09-14 23:01:00,
2013-09-14 18:07:00,73.8,52.3,29.93,SE,135,9.8,9.8,47,0.00,,,0.00,meteobridge,2013-09-14 23:07:00,
2013-09-14 18:12:00,73.8,52.3,29.93,SE,135,7.6,9.8,47,0.00,,,0.00,meteobridge,2013-09-14 23:12:00,
2013-09-14 18:17:00,73.6,52.2,29.92,South,180,7.6,9.2,47,0.00,,,0.00,meteobridge,2013-09-14 23:17:00,
2013-09-14 18:22:00,73.6,52.7,29.92,South,180,8.3,9.8,48,0.00,,,0.00,meteobridge,2013-09-14 23:22:00,
2013-09-14 18:27:00,73.6,52.7,29.92,SE,135,9.8,9.8,48,0.00,,,0.00,meteobridge,2013-09-14 23:27:00,
2013-09-14 18:32:00,73.4,52.5,29.93,SE,135,9.8,9.8,48,0.00,,,0.00,meteobridge,2013-09-14 23:32:00,
2013-09-14 18:38:00,73.2,52.9,29.92,South,180,5.4,6.0,49,0.00,,,0.00,meteobridge,2013-09-14 23:38:00,
2013-09-14 18:43:00,72.9,53.1,29.93,SE,135,6.0,6.0,50,0.00,,,0.00,meteobridge,2013-09-14 23:43:00,
2013-09-14 18:48:00,72.9,53.6,29.92,SE,135,6.0,6.0,51,0.00,,,0.00,meteobridge,2013-09-14 23:48:00,
2013-09-14 18:53:00,72.7,53.4,29.92,South,180,6.0,6.9,51,0.00,,,0.00,meteobridge,2013-09-14 23:53:00,
2013-09-14 18:58:00,72.5,53.4,29.92,SE,135,5.4,5.4,51,0.00,,,0.00,meteobridge,2013-09-14 23:58:00,
2013-09-14 19:03:00,72.5,53.4,29.92,South,180,3.1,3.1,51,0.00,,,0.00,meteobridge,2013-09-15 00:03:00,
2013-09-14 19:09:00,72.5,53.4,29.92,SE,135,4.5,5.4,51,0.00,,,0.00,meteobridge,2013-09-15 00:09:00,
2013-09-14 19:14:00,72.1,53.6,29.92,SE,135,6.9,6.9,52,0.00,,,0.00,meteobridge,2013-09-15 00:14:00,
2013-09-14 19:19:00,72.0,53.4,29.91,South,180,2.2,3.8,52,0.00,,,0.00,meteobridge,2013-09-15 00:19:00,
2013-09-14 19:24:00,71.8,53.2,29.92,SE,135,6.0,6.0,52,0.00,,,0.00,meteobridge,2013-09-15 00:24:00,
2013-09-14 19:29:00,71.6,53.1,29.91,SE,135,5.4,5.4,52,0.00,,,0.00,meteobridge,2013-09-15 00:29:00,
2013-09-14 19:34:00,71.6,53.1,29.91,SE,135,6.0,6.0,52,0.00,,,0.00,meteobridge,2013-09-15 00:34:00,
2013-09-14 19:40:00,71.6,53.1,29.91,South,180,9.8,9.8,52,0.00,,,0.00,meteobridge,2013-09-15 00:40:00,
2013-09-14 19:45:00,71.4,53.4,29.91,SE,135,6.0,7.6,53,0.00,,,0.00,meteobridge,2013-09-15 00:45:00,
2013-09-14 19:50:00,71.2,53.2,29.91,SE,135,4.5,5.4,53,0.00,,,0.00,meteobridge,2013-09-15 00:50:00,
2013-09-14 19:55:00,71.4,53.4,29.91,SE,135,6.9,9.2,53,0.00,,,0.00,meteobridge,2013-09-15 00:55:00,
2013-09-14 20:00:00,71.4,53.4,29.91,South,180,9.8,9.8,53,0.00,,,0.00,meteobridge,2013-09-15 01:00:00,
2013-09-14 20:06:00,71.2,53.2,29.91,South,180,6.9,6.9,53,0.00,,,0.00,meteobridge,2013-09-15 01:06:00,
2013-09-14 20:11:00,71.2,53.2,29.91,SE,135,11.4,11.4,53,0.00,,,0.00,meteobridge,2013-09-15 01:11:00,
2013-09-14 20:16:00,70.9,52.9,29.90,SE,135,6.9,6.9,53,0.00,,,0.00,meteobridge,2013-09-15 01:16:00,
2013-09-14 20:21:00,70.9,52.9,29.91,East,90,6.9,8.3,53,0.00,,,0.00,meteobridge,2013-09-15 01:21:00,
2013-09-14 20:26:00,70.7,53.2,29.91,SE,135,6.9,6.9,54,0.00,,,0.00,meteobridge,2013-09-15 01:26:00,
2013-09-14 20:31:00,70.9,52.9,29.91,SE,135,7.6,10.7,53,0.00,,,0.00,meteobridge,2013-09-15 01:31:00,
2013-09-14 20:37:00,70.9,52.9,29.91,SE,135,8.3,11.4,53,0.00,,,0.00,meteobridge,2013-09-15 01:37:00,
2013-09-14 20:42:00,70.5,53.1,29.90,SE,135,3.8,8.3,54,0.00,,,0.00,meteobridge,2013-09-15 01:42:00,
2013-09-14 20:47:00,70.5,53.1,29.91,South,180,5.4,6.0,54,0.00,,,0.00,meteobridge,2013-09-15 01:47:00,
2013-09-14 20:52:00,70.2,52.7,29.91,South,180,3.8,5.4,54,0.00,,,0.00,meteobridge,2013-09-15 01:52:00,
2013-09-14 20:57:00,69.8,52.9,29.91,South,180,2.2,2.2,55,0.00,,,0.00,meteobridge,2013-09-15 01:57:00,
2013-09-14 21:02:00,70.0,53.1,29.91,South,180,3.1,3.1,55,0.00,,,0.00,meteobridge,2013-09-15 02:02:00,
2013-09-14 21:08:00,69.6,53.2,29.91,South,180,7.6,7.6,56,0.00,,,0.00,meteobridge,2013-09-15 02:08:00,
2013-09-14 21:13:00,69.4,53.6,29.91,SE,135,6.9,6.9,57,0.00,,,0.00,meteobridge,2013-09-15 02:13:00,
2013-09-14 21:18:00,69.6,53.8,29.91,East,90,6.0,6.0,57,0.00,,,0.00,meteobridge,2013-09-15 02:18:00,
2013-09-14 21:23:00,69.6,53.8,29.91,SE,135,6.0,7.6,57,0.00,,,0.00,meteobridge,2013-09-15 02:23:00,
2013-09-14 21:28:00,69.4,53.6,29.91,SE,135,6.9,6.9,57,0.00,,,0.00,meteobridge,2013-09-15 02:28:00,
2013-09-14 21:33:00,69.4,53.6,29.90,SE,135,5.4,6.0,57,0.00,,,0.00,meteobridge,2013-09-15 02:33:00,
2013-09-14 21:39:00,69.4,53.6,29.90,SE,135,7.6,9.8,57,0.00,,,0.00,meteobridge,2013-09-15 02:39:00,
2013-09-14 21:44:00,69.4,53.1,29.90,South,180,8.3,8.3,56,0.00,,,0.00,meteobridge,2013-09-15 02:44:00,
2013-09-14 21:49:00,69.6,53.2,29.90,SE,135,7.6,9.8,56,0.00,,,0.00,meteobridge,2013-09-15 02:49:00,
2013-09-14 21:54:00,69.6,53.2,29.90,South,180,6.9,13.6,56,0.00,,,0.00,meteobridge,2013-09-15 02:54:00,
2013-09-14 21:59:00,69.4,53.1,29.89,SW,225,9.8,9.8,56,0.00,,,0.00,meteobridge,2013-09-15 02:59:00,
2013-09-14 22:04:00,69.3,52.9,29.89,South,180,6.0,6.9,56,0.00,,,0.00,meteobridge,2013-09-15 03:04:00,
2013-09-14 22:10:00,69.4,53.1,29.89,SE,135,9.8,9.8,56,0.00,,,0.00,meteobridge,2013-09-15 03:10:00,
2013-09-14 22:15:00,69.3,52.9,29.90,SW,225,9.2,9.2,56,0.00,,,0.00,meteobridge,2013-09-15 03:15:00,
2013-09-14 22:20:00,69.4,53.1,29.89,SW,225,10.7,12.1,56,0.00,,,0.00,meteobridge,2013-09-15 03:20:00,
2013-09-14 22:25:00,69.4,53.1,29.90,SE,135,6.0,6.0,56,0.00,,,0.00,meteobridge,2013-09-15 03:25:00,
2013-09-14 22:30:00,69.3,52.9,29.90,SE,135,7.6,7.6,56,0.00,,,0.00,meteobridge,2013-09-15 03:30:00,
2013-09-14 22:35:00,69.4,53.1,29.90,SE,135,13.6,13.6,56,0.00,,,0.00,meteobridge,2013-09-15 03:35:00,
2013-09-14 22:41:00,69.3,52.9,29.90,SE,135,9.8,9.8,56,0.00,,,0.00,meteobridge,2013-09-15 03:41:00,
2013-09-14 22:46:00,69.1,53.6,29.91,South,180,8.3,8.3,58,0.00,,,0.00,meteobridge,2013-09-15 03:46:00,
2013-09-14 22:51:00,68.7,53.8,29.90,SE,135,9.8,10.7,59,0.00,,,0.00,meteobridge,2013-09-15 03:51:00,
2013-09-14 22:56:00,68.2,54.1,29.90,SE,135,6.9,6.9,61,0.00,,,0.00,meteobridge,2013-09-15 03:56:00,
2013-09-14 23:01:00,68.2,54.7,29.90,SW,225,8.3,8.3,62,0.00,,,0.00,meteobridge,2013-09-15 04:01:00,
2013-09-14 23:02:00,68.2,54.7,29.90,SW,225,8.3,8.3,62,0.00,,,0.00,meteobridge,2013-09-15 04:02:00,
2013-09-14 23:03:00,68.2,54.7,29.90,SW,225,8.3,8.3,62,0.00,,,0.00,meteobridge,2013-09-15 04:03:00,
2013-09-14 23:06:00,68.2,54.7,29.90,SW,225,8.3,8.3,62,0.00,,,0.00,meteobridge,2013-09-15 04:06:00,
2013-09-14 23:11:00,68.4,54.0,29.90,SE,135,7.6,8.3,60,0.00,,,0.00,meteobridge,2013-09-15 04:11:00,
2013-09-14 23:17:00,68.4,54.0,29.90,South,180,6.0,8.3,60,0.00,,,0.00,meteobridge,2013-09-15 04:17:00,
2013-09-14 23:22:00,68.2,54.1,29.91,SE,135,8.3,8.3,61,0.00,,,0.00,meteobridge,2013-09-15 04:22:00,
2013-09-14 23:27:00,68.0,54.0,29.90,SE,135,9.8,9.8,61,0.00,,,0.00,meteobridge,2013-09-15 04:27:00,
2013-09-14 23:32:00,68.0,54.0,29.90,South,180,6.0,10.7,61,0.00,,,0.00,meteobridge,2013-09-15 04:32:00,
2013-09-14 23:37:00,68.0,54.5,29.90,South,180,6.0,9.2,62,0.00,,,0.00,meteobridge,2013-09-15 04:37:00,
2013-09-14 23:42:00,68.2,54.1,29.90,SE,135,7.6,8.3,61,0.00,,,0.00,meteobridge,2013-09-15 04:42:00,
2013-09-14 23:48:00,68.0,54.0,29.90,SE,135,6.0,6.0,61,0.00,,,0.00,meteobridge,2013-09-15 04:48:00,
2013-09-14 23:53:00,68.2,54.1,29.90,SE,135,10.7,10.7,61,0.00,,,0.00,meteobridge,2013-09-15 04:53:00,
2013-09-14 23:58:00,68.0,54.0,29.90,SE,135,9.2,9.2,61,0.00,,,0.00,meteobridge,2013-09-15 04:58:00,